COSMOS 1275 DEB, 42122

Orbit data source: Space-Track

COSMOS 1275 DEB, 42122 is space debris in LEO originally from a launch on Thu, 04 Jun 1981 UTC launched from the Plesetsk Missile And Space Complex (PKMTR). Debris objects in space refer to the collection of defunct objects orbiting the Earth. Examples of debris include non-operational satellites, rocket bodies, and fragments generated from explosions, collisions, or faulty payload assembly.

Loading next visibility...
Identifier
42122, 1981-053QJ
Orbit
LEO
Country
Flag of CISCIS
Related business
Manufacturer
Unknown
Mission
Spacecraft
Bus & Motor
Unknown
Mass
Unknown
Launch date (UTC)
1981-06-04 (44 years ago)
Launch vehicle
Unknown
Launch site
Plesetsk Missile And Space Complex (PKMTR)
Object type
Payload
Rocket body
Debris
Shape & HBR
Unknown shape, 0.1 m
Radar Cross Section
Small (<0.1 m²)

Expand to show TLE details & history
Last TLE update: 5 days ago

TLE from 5 days ago
0 COSMOS 1275 DEB
1 42122U 81053QJ  25300.37838832  .00001740  00000-0  14430-2 0  9996
2 42122  82.9367 179.3083 0089516 113.3762 247.6848 13.86382684600982
Epoch: 2025-10-27T09:04Z
TLE epoch observation values (Epoch: 2025-10-27T09:04:52.750Z)
Latitude
-0.00002°
Longitude
7.10742°
Altitude
969.634 km
Speed
7.354 km/s
True Right ascension
11h 57m 13s
True Declination
0° 00' 00"
Sunlit
Object was in daylight at epoch
Visualization orbit readout
Latitude
Unknown
Longitude
Unknown
Altitude
Unknown
Speed
Unknown
Apparent Right ascension
Unknown
Apparent Declination
Unknown
Sunlit
N/A
Visualization observer readout
Local Sidereal Time
20:41:07
Azimuth
Unknown
Elevation
Unknown
Doppler factor
Unknown
Orbital elements
Apogee altitude
1,003.963 km
Perigee altitude
872.973 km
Semi-major axis
7,316.605 km
Eccentricity
0.00895
Inclination
82.9367°
RAAN
179.3083°
Arg. of periapsis
113.3762°
True anomaly
246.7399°
Mean anomaly
247.6848°
Eccentric anomaly
247.21195°
Mean motion
3.468 °/min
Orbital period
103.81 mins
BSTAR
0.001443
Loading maneuver chart data...
Computing Atmospheric mass density...
Loading historical data...
Loading historical data...
Loading historical data...
Loading historical data...
Loading historical data...
Loading historical data...
Loading historical data...

Documentation

Showing up to 5 results
|